Simultaneous Nadir Overpasses (SNOs) Predictions

Prediction of SNOs between GOES-15 and TERRA Satellite Orbit:

Table of predicted SNOs for the next 14.0 days since TLE Epoch: 5/22/2021
Index Date Time (GOES-15) GOES-15 Lat,Lon TERRA Lat,Lon Distance(km) Time Diff (sec)
1 05/23/2021 06:55:09 0.04,-128.31 0.33,-127.11 137.31 80
2 05/23/2021 19:16:23 -0.05,-128.33 0.76,-132.27 447.42 80
3 05/25/2021 06:42:55 0.04,-128.35 0.94,-124.15 477.62 80
4 05/25/2021 19:04:09 -0.05,-128.36 0.15,-129.31 107.04 80
5 05/27/2021 18:54:35 -0.05,-128.39 -0.46,-126.34 232.36 80
6 05/28/2021 07:15:59 0.05,-128.40 -0.62,-131.54 357.34 80
7 05/30/2021 07:03:46 0.06,-128.42 0.05,-128.59 19.04 80
8 06/01/2021 06:48:52 0.06,-128.44 0.68,-125.63 319.77 80
9 06/01/2021 19:10:07 -0.07,-128.44 0.41,-130.79 266.82 80
10 06/03/2021 19:00:33 -0.07,-128.46 -0.21,-127.83 72.03 80
